Weather in Nizhneirtyshskoye

Russia / Omsk Oblast     55°26′56″N   73°15′04″E
temp.,
°C
wind,
m/s
gust,
m/s
humid.,
%
clouds,
%
prec.,
mm/h
press.,
hPa
HPBL,
m
10 august, wed
wed1000:00+17nne356949 0.0 101466
03:00+16nne3571100 0.0 101473
06:00+15nne357747 0.0 101485
09:00+20ne46605 0.0 1014419
12:00+25ne58505 0.0 10141548
15:00+25ne5852100 0.0 10141805
18:00+25ene355788 0.0 1013272
21:00+20ne2276100 0.8 101415
11 august, thu
thu1100:00+17nne378817 1.4 1014119
03:00+16nne349128 0.0 101460
06:00+16nne48956 0.1 1015151
09:00+20ne57775 0.0 1015415
12:00+25ne56550 0.0 10161054
15:00+27ne454528 0.0 10151989
18:00+26nne465138 0.0 1015700
21:00+20nne4768100 0.0 1016109
12 august, fri
fri1200:00+18ne33763 0.0 101739
03:00+16ese22890 0.0 101616
06:00+16se22890 0.0 101618
09:00+22s33655 0.0 1016378
12:00+26ssw34515 0.0 10141172
15:00+27sw4544100 0.0 10121504
18:00+19nw4789100 4.3 1012217
21:00+18w2495100 6.6 1012119
13 august, sat
sat1300:00+16w369398 6.9 1012130
03:00+13wnw3792100 0.0 1011150
06:00+13wsw3893100 0.0 1011196
09:00+16wnw58755 0.0 1011456
12:00+20w795611 0.0 10111305
15:00+22w6951100 0.0 10092145
18:00+22wnw6105433 0.0 10081260
21:00+17wnw510825 0.9 1008292
14 august, sun
sun1400:00+14w499029 1.1 1008179
03:00+14wnw4891100 0.3 1008190
06:00+12nw411911 0.3 1009313
09:00+15nw69715 0.0 1011706
12:00+19nw710447 0.0 10121972
15:00+19nw61045100 0.0 10122457
18:00+18nw68458 0.0 10131814
21:00+13nw5117418 0.1 1014332